Simultaneous Nadir Overpasses (SNOs) Predictions

Prediction of SNOs between GOES-15 and METOP-A Satellite Orbit:

Table of predicted SNOs for the next 14.0 days since TLE Epoch: 3/6/2020
Index Date Time (GOES-15) GOES-15 Lat,Lon METOP-A Lat,Lon Distance(km) Time Diff (sec)
1 03/07/2020 05:16:03 -0.13,-128.39 0.10,-127.31 122.55 80
2 03/08/2020 17:37:36 0.17,-128.42 0.91,-131.91 396.79 80
3 03/09/2020 17:14:16 0.14,-128.41 -0.19,-126.93 168.92 80
4 03/11/2020 05:35:56 -0.18,-128.35 -0.86,-131.55 363.80 80
5 03/12/2020 05:12:37 -0.16,-128.34 0.23,-126.57 201.71 80
6 03/13/2020 17:34:08 0.19,-128.36 0.83,-131.15 318.39 80
7 03/14/2020 17:10:50 0.16,-128.34 -0.32,-126.18 246.75 80
8 03/16/2020 05:32:30 -0.19,-128.28 -0.73,-130.80 287.14 80
9 03/17/2020 05:09:11 -0.17,-128.26 0.37,-125.82 277.72 80
10 03/18/2020 17:30:42 0.20,-128.27 0.69,-130.40 243.31 80
11 03/19/2020 17:07:23 0.18,-128.25 -0.47,-125.43 321.48 80




NCC Satellite Simultaneous Nadir Overpasses (SNOs) Prediction Service
